Regional Weather Roundup
Issued by NWS

Home | Current Version | Previous Version | Text Only | Print | Product List | Glossary Off
Versions: 1 2 3 4 5 6 7 8 9 10 11 12 13 14 15 16 17 18 19 20 21 22 23 24 25 26 27 28 29 30 31 32 33 34 35 36 37 38 39 40 41 42 43 44 45 46 47 48 49 50

000
ASUS45 KBOI 112010
RWRID
WEATHER ROUNDUP FOR IDAHO
NATIONAL WEATHER SERVICE BOISE ID
200 PM MDT FRI JUL 11 2014

NOTE: "FAIR" INDICATES FEW OR NO CLOUDS BELOW 12000 FEET
WITH NO SIGNIFICANT WEATHER AND/OR OBSTRUCTIONS TO VISIBILITY

IDZ012-014-112100-
SOUTHWEST IDAHO


CITY           SKY/WX    TMP DP  RH WIND       PRES   REMARKS
BOISE          SUNNY     93  50  23 W7        29.92F HX  90
CALDWELL       SUNNY     93  45  18 NW6       29.93F
MOUNTAIN HOME  MOSUNNY   97  42  14 VRB6      29.92F HX  93
$$

IDZ016-017-112100-
SOUTHCENTRAL IDAHO


CITY           SKY/WX    TMP DP  RH WIND       PRES   REMARKS
BURLEY         MOSUNNY   87  52  29 N6        30.01F
JEROME         SUNNY     91  48  22 NW5       30.01F
TWIN FALLS     SUNNY     94  45  18 NW9       30.01F HX  90
$$

IDZ019>023-112100-
SOUTHEAST IDAHO


CITY           SKY/WX    TMP DP  RH WIND       PRES   REMARKS
IDAHO FALLS    MOSUNNY   86  48  26 S8        30.08F
POCATELLO      MOSUNNY   89  55  31 NW8       30.05F
REXBURG        MOSUNNY   84  50  30 SW9       30.10F
$$

IDZ006-010-011-018-031-032-112100-
CENTRAL IDAHO MOUNTAINS


CITY           SKY/WX    TMP DP  RH WIND       PRES   REMARKS
MCCALL         SUNNY     87  34  15 N12       30.08S
HAILEY         MOSUNNY   84  52  32 SE8       30.11F
STANLEY          N/A     82  30  15 N8        30.19F
SALMON         SUNNY     88  43  20 NW5       29.97F
CHALLIS        SUNNY     89  30  12 SE8       30.05F
$$

IDZ002-004-006-007-026-112100-
NORTHERN IDAHO


CITY           SKY/WX    TMP DP  RH WIND       PRES   REMARKS
LEWISTON       SUNNY     93  39  15 NE5       29.91F
LOWELL           N/A     89  55  31 S7        29.89F
COEUR D`ALENE  SUNNY     88  52  29 CALM      29.97F
MULLAN PASS    SUNNY     70  39  32 VRB5      30.21F
$$


USA.gov is the U.S. government's official web portal to all federal, state and local government web resources and services.